Weather History for Chipley, FL

Change the Weather History Date:

Saturday, January 12, 2013

  Actual Average (KMAI) Record (KMAI)
Temperature  
Mean Temperature 74 °F 50 °F  
Max Temperature 80 °F 61 °F 79 °F (2000)
Min Temperature 68 °F 39 °F 27 °F (2004)
Degree Days  
Heating Degree Days 0    
Month to date heating degree days  
Since 1 July heating degree days  
Cooling Degree Days 9    
Month to date cooling degree days  
Year to date cooling degree days  
Growing Degree Days 24 (Base 50)    
Moisture  
Dew Point 68 °F    
Average Humidity 87    
Maximum Humidity 100    
Minimum Humidity 61    
Precipitation  
Precipitation 0.00 in 0.14 in 0.87 in (2002)
Month to date precipitation 1.87  
Year to date precipitation 1.87  
Sea Level Pressure  
Sea Level Pressure 30.00 in    
Wind  
Wind Speed 8 mph (SSE)    
Max Wind Speed 15 mph    
Max Gust Speed 23 mph    
Visibility 7 miles    
Events      
T = Trace of Precipitation, MM = Missing Value Source: NWS Daily Summary

Daily Weather History Graph

Daily Weather History Graph

Search for Another Location

Airport:

Trip Planner

Search our weather history database for the weather conditions in past years. The results will help you decide how hot, cold, wet, or windy it might be!

Date:

Astronomy

Jan. 12, 2013 Rise Set
Actual Time 6:40 AM CST 5:00 PM CST
Civil Twilight 6:14 AM CST 5:27 PM CST
Nautical Twilight 5:45 AM CST 5:56 PM CST
Astronomical Twilight 5:15 AM CST 6:25 PM CST
Moon 7:05 AM CST (1/12) 6:20 PM CST (1/12)
Length of Visible Light 11h 12m
Length of Day
10h 20m
New Moon, 1% of the Moon is Illuminated
Jan 12
New Moon
Jan 18
First Quarter
Jan 26
Full
Feb 3
Last Quarter
Feb 10
New

Hourly Weather History & Observations

Time (CST) Temp. Heat Index Dew Point Humidity Pressure Visibility Wind Dir Wind Speed Gust Speed Precip Events Conditions
12:15 AM 71.6 °F - 69.8 °F 94% 30.04 in 7.0 mi South 11.5 mph 17.3 mph N/A   Overcast
12:35 AM 71.6 °F - 69.8 °F 94% 30.04 in 7.0 mi South 11.5 mph 17.3 mph N/A   Overcast
12:55 AM 71.6 °F - 69.8 °F 94% 30.04 in 7.0 mi South 9.2 mph - N/A   Overcast
1:15 AM 69.8 °F - 69.8 °F 100% 30.04 in 5.0 mi South 9.2 mph - N/A   Overcast
1:35 AM 69.8 °F - 69.8 °F 100% 30.05 in 5.0 mi South 8.1 mph - N/A   Overcast
1:55 AM 69.8 °F - 69.8 °F 100% 30.04 in 5.0 mi South 5.8 mph - N/A   Overcast
2:15 AM 69.8 °F - 69.8 °F 100% 30.04 in 5.0 mi South 8.1 mph - N/A   Overcast
2:35 AM 69.8 °F - 69.8 °F 100% 30.04 in 5.0 mi South 6.9 mph - N/A   Overcast
2:55 AM 69.8 °F - 69.8 °F 100% 30.04 in 5.0 mi South 8.1 mph - N/A   Overcast
3:15 AM 69.8 °F - 68.0 °F 94% 30.03 in 5.0 mi South 9.2 mph 18.4 mph N/A   Overcast
3:35 AM 69.8 °F - 69.8 °F 100% 30.02 in 5.0 mi South 9.2 mph - N/A   Overcast
3:55 AM 69.8 °F - 69.8 °F 100% 30.02 in 4.0 mi South 8.1 mph - N/A   Overcast
4:15 AM 69.8 °F - 69.8 °F 100% 30.02 in 5.0 mi South 8.1 mph - N/A   Overcast
4:35 AM 69.8 °F - 69.8 °F 100% 30.01 in 5.0 mi South 6.9 mph - N/A   Overcast
4:55 AM 69.8 °F - 69.8 °F 100% 30.01 in 4.0 mi South 6.9 mph - N/A   Overcast
5:15 AM 69.8 °F - 69.8 °F 100% 30.01 in 3.0 mi South 9.2 mph - N/A   Overcast
5:35 AM 69.8 °F - 69.8 °F 100% 30.02 in 3.0 mi South 9.2 mph - N/A   Overcast
5:55 AM 69.8 °F - 69.8 °F 100% 30.03 in 2.0 mi Calm Calm - N/A   Overcast
6:15 AM 69.8 °F - 69.8 °F 100% 30.04 in 1.0 mi Calm Calm - N/A   Overcast
6:35 AM 69.8 °F - 69.8 °F 100% 30.05 in 1.8 mi SSE 3.5 mph - N/A   Overcast
6:55 AM 69.8 °F - 68.0 °F 94% 30.04 in 0.8 mi SE 5.8 mph - N/A   Overcast
7:15 AM 69.8 °F - 68.0 °F 94% 30.04 in 0.2 mi ESE 3.5 mph - N/A   Overcast
7:35 AM 68.0 °F - 68.0 °F 100% 30.06 in 0.5 mi South 4.6 mph - N/A   Overcast
7:55 AM 69.8 °F - 68.0 °F 94% 30.07 in 0.8 mi South 4.6 mph - N/A   Overcast
8:15 AM 69.8 °F - 68.0 °F 94% 30.06 in 0.5 mi SSE 3.5 mph - N/A   Overcast
8:35 AM 69.8 °F - 68.0 °F 94% 30.07 in 0.8 mi South 3.5 mph - N/A   Overcast
8:55 AM 69.8 °F - 68.0 °F 94% 30.07 in 0.8 mi South 4.6 mph - N/A   Overcast
9:15 AM 69.8 °F - 68.0 °F 94% 30.08 in 1.0 mi South 4.6 mph - N/A   Overcast
9:35 AM 69.8 °F - 69.8 °F 100% 30.07 in 1.2 mi South 5.8 mph - N/A   Overcast
9:55 AM 69.8 °F - 69.8 °F 100% 30.07 in 1.2 mi South 8.1 mph - N/A   Overcast
10:15 AM 71.6 °F - 69.8 °F 94% 30.06 in 4.0 mi SSE 5.8 mph - N/A   Overcast
10:35 AM 73.4 °F - 69.8 °F 88% 30.06 in 9.0 mi South 9.2 mph - N/A   Overcast
10:55 AM 75.2 °F - 69.8 °F 83% 30.05 in 10.0 mi SSE 6.9 mph - N/A   Mostly Cloudy
11:15 AM 75.2 °F - 69.8 °F 83% 30.03 in 10.0 mi SSE 10.4 mph - N/A   Scattered Clouds
11:35 AM 77.0 °F - 69.8 °F 78% 30.02 in 10.0 mi South 6.9 mph - N/A   Scattered Clouds
11:55 AM 77.0 °F - 69.8 °F 78% 30.01 in 10.0 mi South 13.8 mph 20.7 mph N/A   Mostly Cloudy
12:15 PM 77.0 °F - 68.0 °F 74% 30.00 in 10.0 mi South 15.0 mph 23.0 mph N/A   Scattered Clouds
12:55 PM 80.6 °F 82.7 °F 66.2 °F 61% 29.99 in 10.0 mi South 15.0 mph 20.7 mph N/A   Scattered Clouds
1:35 PM 78.8 °F - 66.2 °F 65% 29.98 in 10.0 mi SSE 15.0 mph 21.9 mph N/A   Mostly Cloudy
1:55 PM 78.8 °F - 66.2 °F 65% 29.98 in 10.0 mi South 10.4 mph 23.0 mph N/A   Scattered Clouds
2:15 PM 78.8 °F - 66.2 °F 65% 29.98 in 10.0 mi South 13.8 mph 23.0 mph N/A   Mostly Cloudy
2:35 PM 78.8 °F - 66.2 °F 65% 29.97 in 10.0 mi SSE 15.0 mph 23.0 mph N/A   Scattered Clouds
2:55 PM 78.8 °F - 64.4 °F 61% 29.97 in 10.0 mi South 12.7 mph 21.9 mph N/A   Partly Cloudy
3:15 PM 78.8 °F - 64.4 °F 61% 29.97 in 10.0 mi South 12.7 mph 20.7 mph N/A   Partly Cloudy
3:35 PM 77.0 °F - 64.4 °F 65% 29.97 in 10.0 mi South 11.5 mph 20.7 mph N/A   Partly Cloudy
3:55 PM 77.0 °F - 66.2 °F 69% 29.96 in 10.0 mi South 15.0 mph 23.0 mph N/A   Partly Cloudy
4:15 PM 75.2 °F - 66.2 °F 73% 29.97 in 10.0 mi South 11.5 mph 18.4 mph N/A   Partly Cloudy
4:35 PM 75.2 °F - 66.2 °F 73% 29.97 in 10.0 mi South 11.5 mph 18.4 mph N/A   Mostly Cloudy
4:55 PM 75.2 °F - 66.2 °F 73% 29.97 in 10.0 mi South 11.5 mph 16.1 mph N/A   Scattered Clouds
5:15 PM 73.4 °F - 66.2 °F 78% 29.96 in 10.0 mi South 10.4 mph 18.4 mph N/A   Partly Cloudy
5:35 PM 73.4 °F - 66.2 °F 78% 29.97 in 10.0 mi South 9.2 mph - N/A   Clear
5:55 PM 73.4 °F - 66.2 °F 78% 29.96 in 10.0 mi South 5.8 mph - N/A   Clear
6:15 PM 73.4 °F - 66.2 °F 78% 29.97 in 10.0 mi SSE 6.9 mph - N/A   Scattered Clouds
6:35 PM 73.4 °F - 66.2 °F 78% 29.96 in 10.0 mi SSE 5.8 mph - N/A   Mostly Cloudy
6:55 PM 71.6 °F - 66.2 °F 83% 29.96 in 10.0 mi South 6.9 mph - N/A   Mostly Cloudy
7:15 PM 71.6 °F - 66.2 °F 83% 29.95 in 10.0 mi SSE 5.8 mph - N/A   Scattered Clouds
7:35 PM 71.6 °F - 66.2 °F 83% 29.94 in 10.0 mi South 5.8 mph - N/A   Partly Cloudy
7:55 PM 71.6 °F - 66.2 °F 83% 29.94 in 10.0 mi ESE 4.6 mph - N/A   Clear
8:15 PM 71.6 °F - 66.2 °F 83% 29.94 in 10.0 mi South 3.5 mph - N/A   Clear
8:35 PM 69.8 °F - 66.2 °F 88% 29.95 in 10.0 mi South 4.6 mph - N/A   Clear
8:55 PM 69.8 °F - 66.2 °F 88% 29.95 in 10.0 mi Calm Calm - N/A   Clear
9:15 PM 69.8 °F - 66.2 °F 88% 29.95 in 10.0 mi ESE 3.5 mph - N/A   Scattered Clouds
9:35 PM 69.8 °F - 66.2 °F 88% 29.95 in 10.0 mi ESE 3.5 mph - N/A   Mostly Cloudy
9:55 PM 69.8 °F - 66.2 °F 88% 29.95 in 9.0 mi ESE 5.8 mph - N/A   Scattered Clouds
10:15 PM 69.8 °F - 66.2 °F 88% 29.94 in 9.0 mi Calm Calm - N/A   Partly Cloudy
10:35 PM 69.8 °F - 68.0 °F 94% 29.95 in 8.0 mi South 5.8 mph - N/A   Mostly Cloudy
10:55 PM 69.8 °F - 68.0 °F 94% 29.95 in 8.0 mi South 8.1 mph - N/A   Overcast
11:15 PM 69.8 °F - 69.8 °F 100% 29.94 in 8.0 mi South 6.9 mph - N/A   Overcast
11:35 PM 71.6 °F - 69.8 °F 94% 29.94 in 8.0 mi South 8.1 mph - N/A   Mostly Cloudy
11:55 PM 71.6 °F - 69.8 °F 94% 29.94 in 10.0 mi South 8.1 mph - N/A   Overcast